Location: Miles
(41.4492°N, 81.6087°W)
Time: 16:10:31
(UTC+00:00)

S-56A Canister/Altair - Pass Details

Date: 20 September 2024
Orbit: 636 x 2487 km, 38.9° (Epoch: 12 October)

Event Time Altitude Azimuth Distance (km) Brightness Sun altitude
Rises 03:11:54 0° 279° (W) 3,669 11.6 -38.7°
Reaches altitude 10° 03:14:15 10° 273° (W) 2,911 10.9 -39.0°
Enters shadow 03:17:40 31° 253° (WSW) 2,035 9.7 -39.4°
